Starlink 1179

decayed
NORAD ID: 45085 Int'l Des: 2020-006 Owner: SPXS Country: US Constellation: starlink
LEOCIRCULAR
Gruppe

Über Starlink 1179

Beschreibung wird geladen...

Höhenverlauf

Altitude vs Time

uPlot chart will show altitude changes over time

Zweizeiliger Elementsatz

1 45085U 20006AT 25278.13464752 .10053174 12378-4 56146-3 0 9997
2 45085 53.0243 161.3818 0004864 238.8325 121.2245 16.42084533314463
Epoch: 5. Okt. 2025 • Age: 741 hours

Aktueller Status

Position data unavailable
Startdatum 29. Jan. 2020
Alter 5.7 years
Verglühungsdatum 5. Okt. 2025
Typ internet

Technische Details

Klassifizierung Payload
Masse 260.00 kg
Trockenmasse 248.00 kg
Gesamtmasse 260.00 kg
Länge 0.20 m
Durchmesser 2.80 m
Spannweite 9.00 m
Form Box + pan
Hersteller SPXS
Bus-Typ Starlink
Phasenstatus Reentered
Besitzer/Staat SPXS/US

Große Konstellationen

Loading constellations...